User: anonymous   Login
Location: St. Louis
(38.6270°N, 90.1994°W)
Time: 13:33:00
(UTC-06:00)
Language:

SPROUT - Orbit

View from above orbital plane
View from above orbital plane
View from above satellite
View from above satellite

Ground track
Ground track

The orbit data is extracted from the following two-line orbital elements,

1 39770U 14029E   22021.57834251  .00003951  00000-0  42336-3 0  9993
2 39770  97.9305 137.9710 0008373 201.1946 158.8878 14.89219059415792
Epoch (UTC): 21 January 2022 13:52:48
Eccentricity: 0.0008373
inclination: 97.9305°
perigee height: 594 km
apogee height: 606 km
right ascension of ascending node: 137.9710°
argument of perigee: 201.1946°
revolutions per day: 14.89219059
mean anomaly at epoch: 158.8878°
orbit number at epoch: 41579

The dashed part of the orbit path shows where the satellite is in the earth's shadow,  

DLR